Wind_Speed
18 17 16 13 15 12 9 4 10 14 17 20 24 30 30 30 33 32 17 22 25 28 32 35 37 39 37 32 28 26 22 20 24 25 30 33 35 39 41 43 43 45 48 53
15 16 13 15 16 14 10 10 15 17 21 25 30 33 32 33 26 24 18 18 22 26 31 35 34 38 40 33 28 25 23 24 24 31 33 37 40 40 40 42 44 47 51 55
15 15 16 17 17 13 13 13 13 18 20 19 28 27 26 25 20 17 16 15 21 25 31 34 36 39 42 35 30 28 29 27 30 35 39 41 42 43 43 43 45 48 51 55
13 16 20 18 11 12 16 17 18 17 16 21 24 26 25 25 21 20 19 17 23 32 33 34 38 42 40 35 32 31 31 31 35 37 38 40 42 42 43 44 46 49 53 56
14 15 12 11 11 13 16 16 19 17 17 19 19 21 21 21 21 23 23 25 31 34 34 35 40 42 37 35 34 33 33 37 39 40 42 43 44 43 45 46 48 51 55 57
14 14 14 15 13 10 10 13 17 13 12 15 21 23 24 24 23 24 24 26 30 32 33 37 41 38 39 38 37 34 37 41 43 45 46 45 45 45 46 47 48 51 55 59
14 17 18 13 11 11 14 12 13 15 14 16 19 22 24 24 28 30 30 32 33 35 36 39 38 41 42 40 39 40 40 42 45 47 47 47 46 46 47 47 48 52 55 59
15 20 20 16 16 16 17 15 14 8 9 13 20 23 25 28 30 31 33 36 40 40 39 40 38 44 46 43 42 42 44 45 47 48 48 47 46 47 47 47 49 54 56 59
14 18 17 18 17 18 20 16 14 14 17 22 21 20 25 29 31 32 35 37 38 38 43 43 43 47 47 48 47 46 46 47 48 49 50 49 48 48 48 48 50 54 57 60
11 12 15 17 20 18 16 14 16 16 22 18 17 19 22 25 29 32 35 36 38 41 44 45 46 46 48 48 48 48 48 49 51 52 51 51 49 49 49 50 51 56 58 61
12 13 14 17 17 21 22 20 20 19 19 22 23 26 26 28 32 34 36 38 41 42 38 38 43 46 46 47 49 50 51 53 53 52 52 52 51 50 50 50 52 54 58 62
13 13 14 17 19 21 23 23 23 22 22 24 25 24 28 29 29 32 35 35 32 35 38 39 42 45 45 46 49 49 49 50 50 49 51 51 50 50 50 49 52 54 58 59
19 21 20 21 21 22 22 24 25 25 26 29 31 31 31 32 32 31 28 31 33 33 37 40 43 46 46 51 52 52 53 54 55 53 50 49 47 48 49 49 52 54 58 53
27 23 24 25 28 24 18 23 26 28 30 32 33 33 35 33 28 27 30 32 32 36 42 44 45 44 45 47 50 52 55 56 56 55 54 53 49 48 48 50 52 54 56 49
31 30 28 29 31 29 24 24 23 27 31 35 37 38 34 30 29 31 33 33 37 38 40 41 41 43 44 45 49 50 53 55 56 55 54 52 49 49 49 51 52 55 50 46
34 34 32 31 31 28 27 27 30 34 37 39 38 33 27 30 35 36 36 39 38 39 41 40 39 42 47 49 52 54 54 55 56 54 52 52 48 49 49 51 55 56 47 40
34 33 34 31 31 32 33 33 36 36 35 30 24 25 28 32 34 34 37 33 33 35 36 36 36 37 42 48 52 56 56 55 55 56 53 52 50 49 50 52 57 51 44 32
34 31 32 32 34 37 35 33 36 31 26 24 26 30 31 33 32 38 31 32 32 32 35 40 42 47 53 55 55 56 58 55 54 55 54 54 51 51 52 55 53 47 36 30
31 30 32 35 35 37 30 30 28 30 24 29 30 32 31 34 31 31 35 31 33 36 39 40 43 49 51 53 52 55 57 55 55 55 53 53 52 52 54 54 47 39 32 27
31 32 34 36 36 36 28 27 29 31 22 26 20 30 29 26 28 33 34 35 37 38 43 47 48 53 54 56 56 56 55 55 54 53 52 51 51 52 56 50 43 39 32 26
37 37 38 38 38 38 33 30 27 26 27 30 28 25 23 27 29 31 33 37 40 42 45 48 51 53 55 56 58 59 56 53 51 51 49 49 49 54 53 47 44 35 29 20
40 42 40 39 39 40 32 29 29 30 30 26 25 25 27 27 29 31 35 39 43 45 48 51 49 51 57 60 59 55 53 49 45 43 45 46 49 52 47 46 39 31 21 10
38 38 40 40 40 38 32 28 28 29 28 29 26 28 28 28 31 35 38 41 44 48 48 45 49 56 59 56 53 52 48 43 39 39 41 43 49 44 44 38 30 24 11 4
35 36 37 37 38 36 32 30 29 29 26 25 27 27 27 29 33 37 40 41 44 44 43 47 52 57 55 51 47 42 39 38 38 37 38 43 40 39 33 29 24 18 10 13
37 37 36 36 37 34 31 29 24 23 24 26 25 27 29 32 34 37 39 43 44 42 44 49 55 52 49 46 37 36 35 34 36 35 37 37 34 29 27 26 22 23 21 22
29 30 30 28 28 27 26 22 21 23 27 29 30 30 33 37 39 41 42 44 43 42 45 50 52 47 44 40 36 34 31 32 33 31 36 30 26 24 25 22 21 22 23 23
Wind_Direction
203 209 210 211 203 218 196 267 312 303 305 302 300 303 303 307 312 316 355 352 346 336 330 326 326 333 338 331 320 316 306 290 296 307 307 310 312 316 314 314 311 314 314 317
215 224 224 214 234 246 241 282 280 276 277 279 279 289 288 290 293 301 313 329 336 329 319 317 319 326 333 325 321 316 311 301 299 308 310 312 320 315 311 313 315 317 319 320
233 243 242 237 242 244 264 280 286 290 287 280 279 284 287 290 285 282 297 315 325 314 307 308 310 320 325 321 321 319 318 315 316 318 320 324 320 314 316 314 316 317 315 312
249 248 237 247 268 269 279 293 292 285 287 280 283 282 284 285 285 271 298 298 300 307 309 312 317 322 321 320 317 320 323 323 318 316 319 322 317 316 315 314 313 310 313 316
251 248 260 259 267 275 283 291 287 291 279 280 278 276 289 295 279 282 290 289 300 304 307 314 317 319 322 323 321 323 323 314 314 316 319 317 318 320 315 313 310 314 315 318
250 261 264 266 272 286 292 282 307 302 287 272 282 289 289 285 282 289 296 303 301 307 310 315 315 319 326 323 324 319 313 313 314 315 315 315 318 317 313 312 312 314 316 320
264 264 271 282 284 295 313 288 298 295 291 286 283 288 281 282 299 309 303 296 301 304 311 310 321 324 322 322 325 323 318 314 314 313 314 313 313 316 313 312 311 315 317 321
248 256 268 278 291 293 303 320 333 289 286 304 303 284 277 285 294 296 297 297 300 308 309 320 320 320 319 323 324 321 318 317 315 314 313 312 313 315 314 313 313 317 319 321
253 255 273 277 282 282 300 308 316 294 291 300 303 284 283 289 295 298 299 302 306 313 321 320 319 319 321 323 322 319 316 314 313 314 314 314 314 316 316 315 315 318 320 323
249 273 265 279 290 300 309 314 312 308 303 305 302 303 304 302 302 301 304 313 318 315 319 322 323 323 319 318 319 320 319 319 317 317 317 316 315 317 318 316 317 320 322 324
253 263 287 302 314 318 320 319 315 311 306 305 307 310 312 310 306 307 309 314 320 326 327 326 327 322 324 326 323 322 323 322 320 319 317 317 317 319 319 318 319 319 323 325
268 263 265 287 299 302 305 306 302 305 307 302 303 304 307 315 313 310 313 329 328 329 326 323 323 322 322 324 326 326 323 323 322 321 321 321 319 320 320 318 319 321 325 325
276 279 279 294 296 297 293 294 293 296 299 302 307 316 314 313 311 324 328 329 332 331 329 327 324 323 324 326 325 325 326 327 326 325 320 318 319 320 318 317 319 322 326 325
280 276 282 290 299 299 288 280 284 292 295 298 303 309 310 305 312 314 319 321 326 332 332 327 325 324 322 324 329 333 332 329 326 326 326 322 319 318 317 317 320 324 327 325
279 281 284 285 291 290 284 289 282 293 293 294 302 305 307 307 303 308 329 314 324 326 325 323 325 326 328 330 330 329 329 329 328 327 325 322 320 319 318 320 322 326 326 324
275 279 282 284 282 278 286 291 287 294 294 297 302 308 313 312 309 307 317 304 315 316 320 323 326 327 327 327 328 327 326 326 326 327 326 323 321 320 319 323 324 326 325 324
269 273 276 274 272 271 281 289 290 294 294 295 305 306 310 311 305 318 318 316 319 317 318 316 319 326 328 326 323 321 321 323 324 326 329 326 322 320 321 325 326 324 325 322
272 274 272 271 268 272 282 289 294 291 297 297 305 305 297 293 298 319 315 313 310 319 308 314 310 308 316 322 321 319 320 320 320 323 329 327 323 321 325 327 325 324 323 320
267 270 272 270 270 274 286 293 297 292 304 310 307 306 306 302 295 308 306 308 319 317 315 313 314 304 311 319 319 316 317 319 320 323 328 327 323 324 325 326 325 323 321 320
271 270 270 275 279 285 294 287 289 300 301 309 306 321 309 303 305 304 302 309 317 313 316 322 324 321 321 319 317 315 315 316 320 323 327 325 323 325 326 328 324 323 321 315
273 270 274 278 281 286 293 295 296 296 302 310 312 304 306 306 304 308 309 310 309 318 323 321 322 320 318 317 314 315 316 317 318 323 325 323 326 327 329 327 326 328 325 314
268 272 276 278 282 286 289 293 293 296 300 300 301 304 305 303 306 308 310 315 320 321 320 323 323 319 316 316 318 319 318 319 320 323 323 325 329 329 330 327 329 327 335 325
265 268 270 273 278 284 290 292 294 300 299 298 292 295 301 308 314 314 316 320 321 320 322 323 320 319 320 322 324 326 326 327 323 323 326 332 330 334 333 338 340 350 1 71
265 267 270 274 278 282 289 292 292 290 295 296 296 300 308 310 313 317 320 319 316 321 322 321 321 323 322 326 328 327 331 329 329 330 335 333 338 342 350 356 5 19 64 114
261 264 268 273 277 284 286 290 289 290 289 290 301 309 314 316 314 314 316 320 321 322 322 323 324 323 325 333 336 336 333 332 335 337 338 340 348 353 3 15 31 53 82 103
267 272 273 276 276 275 281 288 287 291 301 308 307 308 312 316 318 316 318 318 319 322 323 322 323 324 330 332 332 333 334 335 337 342 341 350 357 5 20 34 52 67 82 94
Height
5915 5915 5915 5916 5915 5917 5917 5916 5916 5915 5914 5913 5910 5907 5906 5904 5902 5901 5898 5894 5893 5891 5891 5890 5887 5884 5878 5873 5868 5862 5856 5852 5848 5845 5840 5834 5829 5823 5817 5811 5807 5800 5794 5787
5914 5913 5914 5914 5915 5916 5915 5915 5914 5913 5912 5910 5906 5904 5903 5902 5901 5899 5898 5896 5894 5892 5890 5888 5885 5881 5876 5871 5865 5859 5853 5847 5843 5838 5833 5828 5822 5816 5811 5804 5796 5790 5783 5776
5912 5913 5912 5913 5912 5912 5912 5912 5911 5911 5908 5906 5901 5900 5898 5899 5898 5899 5898 5896 5894 5892 5889 5886 5883 5877 5871 5865 5858 5851 5844 5839 5834 5828 5823 5817 5812 5807 5801 5794 5788 5781 5777 5770
5912 5912 5912 5912 5910 5911 5910 5909 5907 5905 5905 5903 5899 5898 5896 5896 5896 5897 5896 5894 5892 5889 5884 5880 5876 5870 5863 5856 5851 5844 5837 5831 5827 5823 5817 5812 5806 5799 5793 5787 5781 5775 5767 5758
5911 5910 5909 5909 5909 5909 5908 5906 5903 5902 5901 5899 5897 5896 5894 5895 5894 5893 5891 5889 5886 5882 5878 5874 5869 5863 5857 5850 5843 5836 5830 5827 5822 5815 5810 5806 5799 5791 5784 5778 5771 5763 5756 5747
5906 5906 5907 5906 5906 5906 5905 5903 5900 5899 5899 5897 5894 5894 5893 5891 5889 5888 5887 5884 5879 5876 5872 5868 5863 5856 5849 5843 5837 5833 5826 5820 5814 5810 5805 5797 5790 5783 5775 5768 5761 5753 5745 5737
5904 5904 5903 5903 5903 5903 5903 5902 5899 5897 5895 5894 5893 5891 5887 5886 5885 5884 5882 5878 5874 5871 5867 5863 5855 5849 5844 5837 5830 5825 5820 5815 5809 5803 5795 5788 5781 5773 5766 5759 5752 5744 5735 5726
5902 5902 5901 5902 5902 5902 5901 5900 5897 5894 5894 5892 5889 5886 5885 5883 5882 5879 5875 5872 5868 5864 5860 5854 5848 5842 5836 5830 5824 5819 5814 5807 5801 5793 5786 5779 5772 5765 5758 5750 5742 5734 5725 5715
5899 5900 5900 5900 5900 5899 5898 5897 5895 5893 5891 5888 5886 5883 5881 5879 5876 5873 5869 5865 5861 5857 5851 5846 5841 5835 5827 5820 5815 5811 5805 5798 5792 5785 5777 5770 5763 5756 5748 5740 5733 5724 5714 5705
5899 5898 5898 5898 5896 5896 5894 5894 5892 5889 5886 5883 5882 5879 5877 5874 5870 5867 5863 5860 5856 5852 5847 5841 5833 5825 5820 5815 5808 5802 5796 5790 5783 5776 5769 5762 5754 5747 5738 5730 5722 5714 5704 5693
5897 5896 5896 5894 5892 5891 5890 5888 5886 5885 5883 5880 5877 5874 5871 5868 5864 5861 5857 5855 5852 5847 5841 5834 5828 5820 5814 5809 5803 5797 5790 5783 5776 5769 5761 5753 5745 5737 5729 5720 5712 5703 5694 5682
5894 5894 5893 5892 5891 5889 5888 5886 5882 5881 5880 5877 5875 5874 5867 5863 5859 5856 5853 5851 5846 5840 5834 5828 5821 5815 5810 5804 5797 5791 5785 5778 5770 5761 5753 5744 5736 5728 5720 5711 5703 5693 5683 5672
5891 5890 5890 5889 5890 5888 5885 5881 5878 5876 5874 5872 5868 5866 5862 5859 5855 5852 5849 5846 5841 5836 5829 5823 5816 5809 5804 5798 5791 5785 5777 5768 5760 5752 5743 5734 5725 5718 5710 5702 5693 5683 5673 5662
5886 5886 5886 5886 5883 5882 5881 5878 5874 5872 5870 5866 5864 5861 5857 5854 5851 5848 5845 5841 5836 5830 5824 5817 5810 5805 5799 5792 5784 5776 5768 5761 5752 5744 5735 5726 5717 5709 5700 5692 5683 5673 5663 5653
5880 5880 5880 5879 5876 5875 5874 5873 5871 5868 5864 5860 5859 5855 5854 5850 5846 5843 5839 5836 5832 5825 5819 5812 5805 5800 5793 5785 5778 5770 5762 5754 5745 5736 5728 5718 5709 5700 5691 5683 5673 5663 5653 5645
5875 5874 5874 5874 5872 5870 5869 5867 5865 5862 5858 5856 5853 5851 5848 5845 5842 5838 5835 5831 5826 5821 5814 5808 5802 5795 5787 5780 5772 5763 5756 5748 5739 5730 5721 5711 5701 5691 5682 5673 5663 5653 5644 5636
5869 5869 5868 5868 5866 5865 5864 5862 5858 5856 5853 5851 5848 5847 5843 5840 5836 5833 5828 5824 5821 5816 5810 5803 5797 5789 5782 5775 5767 5758 5749 5741 5732 5723 5713 5703 5693 5683 5673 5663 5653 5643 5635 5629
5862 5863 5861 5860 5859 5858 5858 5856 5852 5849 5848 5847 5845 5842 5839 5835 5831 5827 5824 5819 5816 5810 5804 5798 5792 5783 5776 5768 5759 5750 5741 5732 5724 5714 5705 5695 5685 5674 5664 5653 5643 5633 5627 5622
5855 5855 5853 5851 5851 5851 5855 5849 5845 5843 5843 5841 5839 5835 5833 5829 5826 5823 5818 5814 5810 5805 5799 5792 5785 5777 5770 5760 5750 5741 5731 5723 5715 5705 5696 5686 5676 5666 5655 5644 5634 5625 5619 5615
5847 5847 5846 5844 5843 5842 5847 5843 5841 5839 5839 5836 5832 5829 5825 5821 5819 5815 5811 5808 5804 5799 5793 5784 5775 5767 5758 5749 5741 5731 5723 5715 5706 5697 5687 5678 5668 5658 5647 5635 5626 5618 5611 5607
5836 5837 5836 5835 5833 5833 5836 5835 5834 5834 5835 5830 5826 5823 5820 5817 5814 5810 5807 5803 5798 5791 5783 5776 5768 5759 5750 5741 5731 5722 5713 5706 5697 5689 5679 5670 5661 5650 5637 5628 5617 5608 5603 5599
5828 5827 5828 5828 5827 5826 5829 5829 5829 5828 5825 5823 5821 5818 5814 5811 5809 5805 5800 5795 5788 5782 5775 5768 5760 5751 5741 5732 5721 5711 5703 5695 5688 5680 5672 5664 5654 5642 5630 5620 5609 5601 5595 5593
5820 5820 5820 5821 5819 5819 5821 5822 5821 5819 5818 5815 5813 5810 5808 5805 5801 5797 5793 5787 5780 5774 5769 5761 5752 5742 5732 5722 5713 5705 5696 5688 5681 5674 5667 5658 5648 5637 5625 5613 5603 5595 5591 5592
5813 5812 5812 5813 5812 5812 5813 5813 5812 5810 5809 5807 5805 5803 5801 5798 5795 5790 5784 5779 5774 5768 5760 5752 5743 5733 5723 5716 5707 5699 5691 5684 5677 5670 5663 5654 5645 5634 5624 5613 5603 5596 5593 5594
5803 5804 5806 5806 5805 5805 5805 5805 5805 5803 5802 5800 5798 5796 5794 5791 5788 5783 5777 5771 5766 5760 5753 5744 5735 5725 5718 5711 5703 5694 5688 5682 5675 5669 5661 5653 5644 5636 5627 5617 5610 5604 5601 5602
5798 5799 5799 5798 5798 5797 5798 5798 5797 5796 5795 5793 5791 5790 5787 5783 5778 5774 5769 5764 5758 5752 5745 5737 5727 5719 5713 5706 5699 5692 5686 5680 5674 5667 5660 5652 5646 5639 5631 5624 5619 5616 5614 5613